Simultaneous Nadir Overpasses (SNOs) Predictions

Prediction of SNOs between AQUA and NOAA-19 Satellite Orbit:

Table of predicted SNOs for the next 14.0 days since TLE Epoch: 8/20/2022
Index Date (AQUA) Time (AQUA) Lat,Lon (AQUA) SZA (AQUA ) Date (NOAA-19) Time (NOAA-19) Lat,Lon (NOAA-19) SZA (NOAA-19 ) Distance(km) Time Diff (sec)
1 08/21/2022 00:03:10 -77.38, -15.92 114.36 08/21/2022 00:02:48 -77.39, -15.84 114.35 1.93 22
2 08/21/2022 00:52:37 77.41, 151.63 65.69 08/21/2022 00:53:41 77.42, 151.60 65.68 1.49 64
3 08/23/2022 05:36:21 77.36, 80.89 66.36 08/23/2022 05:35:35 77.36, 80.91 66.37 0.73 46
4 08/23/2022 06:25:48 -77.42,-111.72 113.56 08/23/2022 06:26:40 -77.40,-111.67 113.60 3.20 52
5 08/25/2022 11:09:31 -77.34, 177.68 112.92 08/25/2022 11:08:34 -77.33, 177.61 112.91 2.17 57
6 08/25/2022 11:58:58 77.37, -14.80 67.14 08/25/2022 11:59:27 77.37, -14.94 67.13 3.40 29
7 08/27/2022 16:42:36 77.08, -84.56 67.53 08/27/2022 16:41:28 77.01, -86.99 67.65 61.04 68
8 08/27/2022 17:32:08 -77.36, 81.96 112.11 08/27/2022 17:32:25 -77.37, 81.92 112.11 1.20 17
9 08/29/2022 23:05:18 77.35, 178.75 68.65 08/29/2022 23:05:12 77.34, 178.67 68.65 2.00 6
10 09/01/2022 04:38:28 -77.36, -84.58 110.55 09/01/2022 04:38:10 -77.32, -84.60 110.58 3.92 18



Historial Predications of SNOs between AQUA and NOAA-19
